Weather History for Edinburg, TX

Change the Weather History Date:

Friday, November 30, 2012

  Actual Average (KMFE) Record (KMFE)
Temperature  
Mean Temperature 75 °F 65 °F  
Max Temperature 84 °F 75 °F 88 °F (1975)
Min Temperature 66 °F 55 °F 31 °F (1885)
Degree Days  
Heating Degree Days 0 4  
Month to date heating degree days 57  
Since 1 July heating degree days 60  
Cooling Degree Days 10 4  
Month to date cooling degree days 187  
Year to date cooling degree days 4369  
Growing Degree Days 25 (Base 50)    
Moisture  
Dew Point 66 °F    
Average Humidity 74    
Maximum Humidity 91    
Minimum Humidity 49    
Precipitation  
Precipitation 0.00 in 0.03 in 0.94 in (2009)
Month to date precipitation 0.89  
Year to date precipitation 21.01  
Sea Level Pressure  
Sea Level Pressure 30.10 in    
Wind  
Wind Speed 4 mph (SSE)    
Max Wind Speed 12 mph    
Max Gust Speed -    
Visibility 6 miles    
Events      
T = Trace of Precipitation, MM = Missing Value Source: NWS Daily Summary

Daily Weather History Graph

Daily Weather History Graph

Search for Another Location

Airport:

Trip Planner

Search our weather history database for the weather conditions in past years. The results will help you decide how hot, cold, wet, or windy it might be!

Date:

Astronomy

Nov. 30, 2012 Rise Set
Actual Time 7:03 AM CST 5:39 PM CST
Civil Twilight 6:38 AM CST 6:04 PM CST
Nautical Twilight 6:09 AM CST 6:33 PM CST
Astronomical Twilight 5:41 AM CST 7:01 PM CST
Moon 7:34 PM CST (11/30) 8:36 AM CST (11/30)
Length of Visible Light 11h 26m
Length of Day
10h 36m
Waning Gibbous, 96% of the Moon is Illuminated
Nov 30
Waning Gibbous
Dec 6
Last Quarter
Dec 13
New
Dec 19
First Quarter
Dec 28
Full

Hourly Weather History & Observations

Time (CST) Temp. Heat Index Dew Point Humidity Pressure Visibility Wind Dir Wind Speed Gust Speed Precip Events Conditions
12:15 AM 70.7 °F - 64.4 °F 80% 30.12 in 7.0 mi East 3.5 mph - N/A   Overcast
12:35 AM 70.7 °F - 64.4 °F 80% 30.12 in 7.0 mi ENE 3.5 mph - N/A   Overcast
12:55 AM 70.2 °F - 64.4 °F 82% 30.12 in 7.0 mi East 4.6 mph - N/A   Mostly Cloudy
1:15 AM 70.2 °F - 64.4 °F 82% 30.12 in 7.0 mi ENE 4.6 mph - N/A   Overcast
1:35 AM 70.7 °F - 64.6 °F 81% 30.12 in 7.0 mi East 4.6 mph - N/A   Overcast
1:55 AM 70.0 °F - 64.4 °F 82% 30.11 in 7.0 mi Calm Calm - N/A   Overcast
2:15 AM 70.2 °F - 64.9 °F 83% 30.11 in 7.0 mi Calm Calm - N/A   Overcast
2:35 AM 70.3 °F - 64.9 °F 83% 30.11 in 7.0 mi Calm Calm - N/A   Overcast
2:55 AM 70.2 °F - 65.3 °F 85% 30.11 in 7.0 mi Calm Calm - N/A   Overcast
3:15 AM 70.0 °F - 65.3 °F 85% 30.10 in 7.0 mi Calm Calm - N/A   Overcast
3:55 AM 69.3 °F - 64.8 °F 86% 30.10 in 7.0 mi Calm Calm - N/A   Mostly Cloudy
4:15 AM 68.9 °F - 64.6 °F 86% 30.10 in 5.0 mi Calm Calm - N/A   Mostly Cloudy
4:35 AM 68.7 °F - 64.8 °F 87% 30.10 in 7.0 mi Calm Calm - N/A   Scattered Clouds
4:55 AM 67.8 °F - 64.2 °F 88% 30.10 in 5.0 mi Calm Calm - N/A   Clear
5:15 AM 67.5 °F - 64.0 °F 89% 30.10 in 5.0 mi Calm Calm - N/A   Clear
5:55 AM 66.4 °F - 63.5 °F 90% 30.11 in 4.0 mi Calm Calm - N/A   Scattered Clouds
6:15 AM 66.6 °F - 63.7 °F 90% 30.11 in 5.0 mi Calm Calm - N/A   Mostly Cloudy
6:35 AM 66.2 °F - 63.5 °F 91% 30.12 in 5.0 mi Calm Calm - N/A   Overcast
6:55 AM 66.4 °F - 63.5 °F 90% 30.12 in 5.0 mi Calm Calm - N/A   Overcast
7:15 AM 66.4 °F - 63.5 °F 90% 30.13 in 4.0 mi Calm Calm - N/A   Scattered Clouds
7:35 AM 66.4 °F - 63.7 °F 91% 30.13 in 3.0 mi Calm Calm - N/A   Mostly Cloudy
7:55 AM 67.1 °F - 64.4 °F 91% 30.14 in 4.0 mi Calm Calm - N/A   Mostly Cloudy
8:15 AM 67.5 °F - 64.6 °F 90% 30.14 in 4.0 mi Calm Calm - N/A   Mostly Cloudy
8:35 AM 68.4 °F - 65.3 °F 90% 30.15 in 5.0 mi Calm Calm - N/A   Overcast
8:55 AM 70.3 °F - 66.7 °F 88% 30.15 in 4.0 mi Calm Calm - N/A   Mostly Cloudy
9:15 AM 73.0 °F - 67.8 °F 84% 30.15 in 5.0 mi Calm Calm - N/A   Haze
9:35 AM 74.8 °F - 68.2 °F 80% 30.16 in 5.0 mi ESE 3.5 mph - N/A   Haze
9:55 AM 75.0 °F - 68.2 °F 79% 30.16 in 5.0 mi SE 4.6 mph - N/A   Haze
10:15 AM 75.6 °F - 68.4 °F 78% 30.16 in 5.0 mi SSW 4.6 mph - N/A   Haze
10:35 AM 76.1 °F - 68.4 °F 77% 30.15 in 5.0 mi SSW 3.5 mph - N/A   Haze
10:55 AM 78.1 °F - 68.0 °F 71% 30.15 in 5.0 mi South 6.9 mph - N/A   Haze
11:15 AM 78.4 °F - 67.6 °F 69% 30.15 in 5.0 mi SSW 6.9 mph - N/A   Haze
11:35 AM 79.0 °F - 67.5 °F 68% 30.14 in 7.0 mi South 6.9 mph - N/A   Mostly Cloudy
11:55 AM 81.7 °F 84.0 °F 66.7 °F 60% 30.13 in 7.0 mi SSW 9.2 mph - N/A   Scattered Clouds
12:15 PM 81.7 °F 83.8 °F 66.0 °F 59% 30.12 in 7.0 mi South 9.2 mph - N/A   Scattered Clouds
12:35 PM 81.9 °F 83.9 °F 65.7 °F 58% 30.11 in 7.0 mi SSW 8.1 mph - N/A   Scattered Clouds
12:55 PM 82.6 °F 84.7 °F 65.8 °F 57% 30.10 in 7.0 mi South 5.8 mph - N/A   Scattered Clouds
1:15 PM 81.5 °F 83.4 °F 65.5 °F 58% 30.09 in 7.0 mi Calm Calm - N/A   Mostly Cloudy
1:35 PM 82.4 °F 84.4 °F 65.7 °F 57% 30.08 in 7.0 mi SSW 8.1 mph - N/A   Mostly Cloudy
1:55 PM 82.0 °F 83.9 °F 65.3 °F 57% 30.07 in 7.0 mi SSE 5.8 mph - N/A   Scattered Clouds
2:15 PM 83.1 °F 84.8 °F 65.1 °F 54% 30.06 in 7.0 mi SSW 4.6 mph - N/A   Scattered Clouds
2:35 PM 83.7 °F 85.1 °F 64.2 °F 52% 30.05 in 7.0 mi South 5.8 mph - N/A   Clear
2:55 PM 84.2 °F 85.6 °F 64.0 °F 51% 30.05 in 7.0 mi SSE 6.9 mph - N/A   Clear
3:15 PM 83.1 °F 84.6 °F 64.4 °F 53% 30.05 in 7.0 mi South 5.8 mph - N/A   Clear
3:35 PM 84.4 °F 85.4 °F 63.5 °F 49% 30.05 in 10.0 mi South 8.1 mph - N/A   Clear
3:55 PM 82.9 °F 84.2 °F 63.7 °F 52% 30.04 in 7.0 mi South 4.6 mph - N/A   Clear
4:15 PM 82.8 °F 84.0 °F 63.7 °F 52% 30.04 in 7.0 mi South 3.5 mph - N/A   Clear
4:35 PM 83.1 °F 84.6 °F 64.2 °F 53% 30.04 in 7.0 mi SSE 4.6 mph - N/A   Clear
4:55 PM 82.9 °F 84.4 °F 64.2 °F 53% 30.03 in 7.0 mi Calm Calm - N/A   Clear
5:15 PM 81.5 °F 83.1 °F 64.6 °F 56% 30.03 in 7.0 mi Calm Calm - N/A   Clear
5:35 PM 81.1 °F 82.7 °F 64.2 °F 56% 30.04 in 10.0 mi SE 3.5 mph - N/A   Scattered Clouds
5:55 PM 80.2 °F 82.5 °F 66.4 °F 63% 30.05 in 7.0 mi East 8.1 mph - N/A   Scattered Clouds
6:15 PM 79.7 °F - 66.6 °F 64% 30.05 in 7.0 mi ESE 8.1 mph - N/A   Mostly Cloudy
6:35 PM 79.3 °F - 66.7 °F 65% 30.05 in 7.0 mi ESE 11.5 mph - N/A   Mostly Cloudy
6:55 PM 78.6 °F - 66.7 °F 67% 30.06 in 10.0 mi ESE 10.4 mph - N/A   Scattered Clouds
7:15 PM 77.7 °F - 66.4 °F 68% 30.07 in 7.0 mi SE 10.4 mph - N/A   Clear
7:35 PM 77.0 °F - 66.6 °F 70% 30.07 in 7.0 mi SE 8.1 mph - N/A   Clear
7:55 PM 76.3 °F - 66.9 °F 73% 30.08 in 7.0 mi SE 10.4 mph - N/A   Clear
8:15 PM 75.7 °F - 67.1 °F 74% 30.08 in 7.0 mi SSE 9.2 mph - N/A   Clear
8:35 PM 75.4 °F - 67.5 °F 76% 30.08 in 7.0 mi SSE 8.1 mph - N/A   Clear
8:55 PM 75.4 °F - 67.8 °F 77% 30.09 in 7.0 mi SSE 10.4 mph - N/A   Scattered Clouds
9:15 PM 74.7 °F - 68.0 °F 80% 30.09 in 7.0 mi SSE 9.2 mph - N/A   Scattered Clouds
9:35 PM 74.3 °F - 68.0 °F 81% 30.09 in 7.0 mi SSE 6.9 mph - N/A   Clear
9:55 PM 73.9 °F - 68.0 °F 82% 30.10 in 7.0 mi SSE 6.9 mph - N/A   Clear
10:15 PM 73.8 °F - 68.2 °F 83% 30.10 in 7.0 mi SSE 8.1 mph - N/A   Clear
10:35 PM 73.4 °F - 68.2 °F 84% 30.10 in 7.0 mi SSE 6.9 mph - N/A   Clear
10:55 PM 73.0 °F - 68.0 °F 84% 30.10 in 7.0 mi SSE 5.8 mph - N/A   Clear
11:15 PM 72.5 °F - 68.0 °F 86% 30.10 in 7.0 mi SSE 5.8 mph - N/A   Clear
11:35 PM 72.5 °F - 68.0 °F 86% 30.10 in 7.0 mi SSE 6.9 mph - N/A   Clear
11:55 PM 72.5 °F - 68.2 °F 86% 30.10 in 7.0 mi SSE 6.9 mph - N/A   Clear